Location: Grange Verzio
(44.5000°N, 6.9833°E)
Time: 18:34:40
(UTC+00:00)

Tiangong - Visible Passes

Search period start: 08 June 2023 00:00
Search period end: 18 June 2023 00:00
Orbit: 386 x 390 km, 41.5° (Epoch: 08 June)

Date Brightness Start Highest point End Pass type
(mag) Time Alt. Az. Time Alt. Az. Time Alt. Az.
08 Jun -1.8 02:07:32 28° SW 02:08:50 47° S 02:11:56 10° E visible
09 Jun -0.7 01:11:32 28° ESE 01:11:32 28° ESE 01:13:22 10° E visible
09 Jun -1.7 02:43:56 10° W 02:47:00 44° S 02:50:04 10° ESE visible
10 Jun -1.9 01:47:53 42° SW 01:48:25 48° S 01:51:32 10° ESE visible
11 Jun 0.2 00:52:05 16° ESE 00:52:05 16° ESE 00:52:54 10° ESE visible
11 Jun -1.5 02:24:23 16° WSW 02:26:28 35° SSW 02:29:25 10° SE visible
12 Jun -1.0 01:28:51 31° SE 01:28:51 31° SE 01:30:53 10° ESE visible
12 Jun -0.5 03:02:01 10° WSW 03:04:19 18° SSW 03:06:35 10° SSE visible
13 Jun -1.0 02:06:07 25° S 02:06:07 25° S 02:08:25 10° SE visible
14 Jun 0.1 02:44:11 11° SSW 02:44:11 11° SSW 02:44:30 10° S visible
14 Jun 0.2 20:52:48 10° SSW 20:53:07 12° SSW 20:53:07 12° SSW visible
15 Jun -0.1 19:55:01 10° S 19:56:26 12° SSE 19:57:50 10° SE visible
15 Jun -0.3 21:29:49 10° SW 21:31:04 20° SW 21:31:04 20° SW visible
16 Jun -1.1 20:31:12 10° SW 20:33:57 27° SSE 20:35:51 15° ESE visible
16 Jun 0.2 22:07:26 10° WSW 22:08:09 15° WSW 22:08:09 15° WSW visible
17 Jun -1.8 21:08:33 10° WSW 21:11:36 44° S 21:12:22 35° SE visible
